Weather Roundup
Issued by NWS Chicago, IL

Home | Current Version | Previous Version | Text Only | Print | Product List | Glossary On
Versions: 1 2 3 4 5 6 7 8 9 10 11 12 13 14 15 16 17 18 19 20 21 22 23 24 25 26 27 28 29 30 31 32 33 34 35 36 37 38 39 40 41 42 43 44 45 46 47 48 49 50
000
NZUS59 KLOT 261310
HRRLOT

CHICAGO AREA WEATHER ROUNDUP
NATIONAL WEATHER SERVICE CHICAGO/ROMEOVILLE IL
700 AM CST FRI DEC 26 2014

NOTE: "FAIR" INDICATES FEW OR NO CLOUDS BELOW 12,000 FEET WITH NO
SIGNIFICANT WEATHER AND/OR OBSTRUCTIONS TO VISIBILITY.

* THESE STATIONS ARE NOT UNDER NWS QUALITY CONTROL. THEY ALSO MAY NOT
  REPORT WEATHER SUCH AS PRECIPITATION OR FOG.

ILZ005-006-012>014-019>023-261400-
NORTHEAST ILLINOIS

CITY           SKY/WX    TMP DP  RH WIND       PRES   REMARKS
OHARE          PTCLDY    37  32  82 SW10      29.99R
MIDWAY         PTCLDY    38  33  82 S9        30.01R
AURORA         PTCLDY    32  29  88 SE3       30.00R
LANSING*       CLEAR     34  32  93 S8        30.03S WCI  27
JOLIET*        CLEAR     36  32  86 S8        30.02R
WAUKEGAN       MOCLDY    37  32  82 SW13      29.97S
DUPAGE AIRPORT PTCLDY    33  30  88 S8        29.99R WCI  26
WHEELING       PTCLDY    37  32  82 S7        30.01S
KANKAKEE*      CLEAR     37  33  87 S15       30.04S
MORRIS*        PTCLDY    36  34  92 S6        30.01R
LEWIS AIRPORT* PTCLDY    35  33  91 S8        30.01S WCI  29
NORTHERLY IS     N/A     38  32  79 SW8         N/A
$$

WIZ051-052-058>065-066-070>072-261400-
SOUTHEAST WISCONSIN

CITY           SKY/WX    TMP DP  RH WIND       PRES   REMARKS
MILWAUKEE      MOCLDY    39  33  79 SW13      29.96S
KENOSHA*       MOCLDY    38  33  82 SW10      29.97S
RACINE*        CLOUDY    38  32  79 SW9G20    29.98S
BURLINGTON     PTCLDY    33  32  94 S9        29.97R WCI  26
WAUKESHA       PTCLDY    37  34  87 SW10      29.96R
WEST BEND      MOCLDY    36  32  87 SW6       29.95R
$$

INZ001>003-010>013-019-020-261400-
NORTHWEST INDIANA

CITY           SKY/WX    TMP DP  RH WIND       PRES   REMARKS
GARY*          CLEAR     37  30  75 S8        30.04R
MICHIGAN CITY* NOT AVBL
RENSSELAER*    NOT AVBL
VALPARAISO     CLEAR     33  30  88 S6        30.06R WCI  28
$$

LMZ740>746-261400-
SOUTHERN LAKE MICHIGAN

STATION/POSITION TIME  SKY/WX   TEMP WIND        PRES    VSBY
                                AIR  DIR/SP/G
                 (UTC)          (F)  (DEG/KT/KT) (MB)    (MI)
HARRISON CRIB    1300            38  200/ 21/ 24   N/A
BURNHAM HARBOR   1300            38  230/  8/ 11   N/A
CALUMET HARBOR   1300            38  190/  8/ 11 1015.2F
BURNS HARBOR     NOT AVBL
MICHIGAN CITY    1300            37  160/ 16/ 20   N/A
$$

ABBREVIATIONS USED IN REMARKS
   TC - TEMPERATURE IN CELSIUS
  WCI - WIND CHILL INDEX
   HX - HEAT INDEX
  VSB - VISIBILITY
$$


USA.gov is the U.S. government's official web portal to all federal, state and local government web resources and services.